Showing default

GONETS M 18, 46487

Orbit data source: Space-Track

GONETS M 18, 46487 is a payload satellite owned by Gonets (CIS) in LEO that was launched on Mon, 28 Sep 2020 UTC via a SOYUZ-2-1B launch vehicle from the Plesetsk Missile And Space Complex (PKMTR). Payload-class satellites include a variety of spacecraft equipped with specific instruments for various scientific and technological missions. These include communications satellites like Starlink; space stations such as the ISS; scientific satellites like the Hubble; Earth observation satellites from companies like Planet Labs, Umbra, and HawkEye 360; GPS; miniature CubeSats for education and research; and military/defense satellites.

Loading next visibility...
Identifier
46487, 2020-068B
Orbit
LEO
Country
Flag of CISCIS
Related business
Manufacturer
Resehetnev ISS
Mission
Operational Commercial Communications
Bus & Motor
STRELA-3M, Unknown motor
Mass
225 kg wet, 225 kg dry
Launch date (UTC)
2020-09-28 (6 years ago)
Launch vehicle
SOYUZ-2-1B
Launch site
Plesetsk Missile And Space Complex (PKMTR)
Object type
Payload
Rocket body
Debris
Shape & HBR
Cyl + 1 Ant, 3.5 m
Radar Cross Section
1.798 m², Large (>1 m²)

Expand to show TLE details & history
Last TLE update: 6 hours ago

TLE from 6 hours ago
0 GONETS M 18
1 46487U 20068B   26126.87760716 -.00000022  00000-0 -22862-3 0  9993
2 46487  82.4974  12.3360 0020406 119.5284 240.7834 12.42870370254016
Epoch: 2026-05-06T21:03Z
TLE epoch observation values (Epoch: 2026-05-06T21:03:45.258Z)
Latitude
0.00002°
Longitude
-168.33436°
Altitude
1,505.026 km
Speed
7.109 km/s
True Right ascension
00h 49m 20s
True Declination
0° 00' 00"
Sunlit
Object was in daylight at epoch
Visualization orbit readout
Latitude
Unknown
Longitude
Unknown
Altitude
Unknown
Speed
Unknown
Apparent Right ascension
Unknown
Apparent Declination
Unknown
Sunlit
N/A
Visualization observer readout
Local Sidereal Time
11:32:34
Azimuth
Unknown
Elevation
Unknown
Doppler factor
Unknown
Orbital elements
Apogee altitude
1,507.87 km
Perigee altitude
1,475.751 km
Semi-major axis
7,869.947 km
Eccentricity
0.00204
Inclination
82.4974°
RAAN
12.336°
Arg. of periapsis
119.5284°
True anomaly
240.57957°
Mean anomaly
240.7834°
Eccentric anomaly
240.68146°
Mean motion
3.10875 °/min
Orbital period
115.8 mins
BSTAR
-0.00022862
Loading maneuver chart data...
Computing Atmospheric mass density...
Loading historical data...
Loading historical data...
Loading historical data...
Loading historical data...
Loading historical data...
Loading historical data...
Loading historical data...

Documentation

Showing up to 5 results
|